Latest Weather Observations for Warwick

IDQ60901

Issued at 5:01 pm EST Thursday 23 February 2017 (issued every 10 minutes, with the page automatically refreshed every 10 minutes)

About weather observations | Map of Brisbane area stations | Latest observations for Brisbane area | Other Formats
Station Details ID: 041525 Name: WARWICK Lat: -28.21 Lon: 152.10 Height: 475.4 m
Data from the previous 72 hours. | See also: Recent months at Warwick
Date/Time
EST
Temp
°C
App
Temp
°C
Dew
Point
°C
Rel
Hum
%
Delta-T
°C
Wind Press
QNH
hPa
Press
MSL
hPa
Rain since
9am
mm
Dir  Spd
km/h
Gust
km/h
Spd
kts
Gust
kts
23/04:30pm 28.6 27.3 12.5 37 9.6 ESE 11 19 6 10 1018.1 1015.5 0.0
23/04:00pm 29.5 28.1 13.5 37 9.7 ESE 13 24 7 13 1017.9 1015.3 0.0
23/03:30pm 29.5 27.9 13.8 38 9.6 SE 15 28 8 15 1017.8 1015.2 0.0
23/03:00pm 29.9 28.2 13.5 36 10.0 SE 15 24 8 13 1018.0 1015.4 0.0
23/02:30pm 29.4 27.6 13.4 37 9.7 SE 15 26 8 14 1018.3 1015.7 0.0
23/02:00pm 29.2 28.1 13.1 37 9.7 SE 11 22 6 12 1018.5 1015.9 0.0
23/01:30pm 28.6 28.1 13.8 40 9.0 SE 9 20 5 11 1018.7 1016.1 0.0
23/01:00pm 28.3 27.8 14.9 44 8.3 SE 11 20 6 11 1019.0 1016.5 0.0
23/12:30pm 27.1 25.9 14.1 44 7.9 SE 13 22 7 12 1019.2 1016.7 0.0
23/12:00pm 26.8 26.2 14.5 46 7.5 ESE 11 22 6 12 1019.6 1017.0 0.0
23/11:30am 26.3 25.2 14.3 47 7.3 SE 13 20 7 11 1019.8 1017.2 0.0
23/11:00am 26.0 25.7 14.3 48 7.1 SE 9 19 5 10 1020.2 1017.6 0.0
23/10:30am 25.1 23.9 14.1 50 6.6 SE 13 20 7 11 1020.8 1018.2 0.0
23/10:00am 24.3 22.9 14.5 54 5.9 SE 15 24 8 13 1020.9 1018.4 0.0
23/09:30am 23.5 21.6 14.1 55 5.6 SE 17 32 9 17 1021.0 1018.5 0.0
23/09:00am 22.7 20.6 14.7 60 4.8 SSE 19 28 10 15 1020.9 1018.4 0.0
23/08:30am 22.0 19.8 14.3 61 4.6 SE 19 30 10 16 1020.9 1018.4 0.0
23/08:00am 21.5 20.0 15.2 67 3.8 SE 17 28 9 15 1020.7 1018.1 0.0
23/07:30am 20.1 19.4 15.5 75 2.8 SE 13 22 7 12 1020.5 1017.9 0.0
23/07:00am 18.6 19.3 16.0 85 1.6 SE 7 13 4 7 1020.6 1018.0 0.0
23/06:30am 16.7 17.6 15.2 91 0.9 SE 4 9 2 5 1020.5 1017.9 0.0
23/06:00am 14.5 15.0 14.0 97 0.3 ENE 4 7 2 4 1020.2 1017.6 0.0
23/05:30am 14.6 15.1 13.9 96 0.4 ESE 4 9 2 5 1019.9 1017.3 0.0
23/05:00am 15.0 16.3 14.1 94 0.5 CALM 0 4 0 2 1019.7 1017.1 0.0
23/04:30am 14.7 16.0 14.0 96 0.4 CALM 0 0 0 0 1019.5 1016.9 0.0
23/04:00am 15.3 15.3 14.3 94 0.6 NE 7 11 4 6 1019.5 1016.9 0.0
23/03:30am 15.1 15.3 14.2 94 0.5 NE 6 7 3 4 1019.5 1016.9 0.0
23/03:00am 16.1 16.9 14.7 91 0.8 E 4 9 2 5 1019.8 1017.2 0.0
23/02:30am 16.0 16.7 14.6 91 0.8 ESE 4 7 2 4 1019.9 1017.3 0.0
23/02:00am 15.7 15.9 14.3 91 0.8 NE 6 9 3 5 1020.0 1017.4 0.0
23/01:30am 16.0 17.3 14.1 88 1.1 CALM 0 6 0 3 1020.2 1017.6 0.0
23/01:00am 15.9 16.9 14.2 90 1.0 NE 2 6 1 3 1020.5 1017.9 0.0
23/12:30am 15.9 17.2 14.2 90 1.0 CALM 0 6 0 3 1020.6 1018.0 0.0
23/12:00am 16.8 17.7 14.0 83 1.6 NE 2 7 1 4 1020.7 1018.1 0.0
 
Date/Time
EST
Temp
°C
App
Temp
°C
Dew
Point
°C
Rel
Hum
%
Delta-T
°C
Wind Press
QNH
hPa
Press
MSL
hPa
Rain since
9am
mm
Dir  Spd
km/h
Gust
km/h
Spd
kts
Gust
kts
22/11:30pm 17.9 17.9 14.1 78 2.2 E 7 13 4 7 1021.0 1018.5 0.0
22/11:00pm 17.6 17.7 14.4 81 1.9 ESE 7 11 4 6 1021.1 1018.6 0.0
22/10:30pm 18.4 18.5 14.5 78 2.3 SE 7 15 4 8 1021.1 1018.6 0.0
22/10:00pm 18.9 18.4 14.9 77 2.4 SE 11 15 6 8 1021.1 1018.6 0.0
22/09:30pm 19.0 19.3 15.1 78 2.3 SE 7 13 4 7 1021.2 1018.7 0.0
22/09:00pm 19.8 18.9 14.9 73 2.9 SE 13 19 7 10 1021.0 1018.5 0.0
22/08:30pm 20.2 19.8 15.2 73 3.0 SE 11 17 6 9 1020.7 1018.1 0.0
22/08:00pm 20.5 21.1 15.2 71 3.2 SE 6 11 3 6 1020.3 1017.7 0.0
22/07:30pm 21.3 21.0 15.5 69 3.5 SE 11 17 6 9 1020.0 1017.4 0.0
22/07:00pm 22.0 22.1 15.4 66 4.0 SE 9 17 5 9 1019.5 1016.9 0.0
22/06:30pm 23.1 22.3 15.2 61 4.8 SE 13 20 7 11 1019.0 1016.5 0.0
22/06:00pm 24.5 23.7 15.0 55 5.8 SE 13 22 7 12 1018.7 1016.1 0.0
22/05:30pm 25.8 23.6 13.4 46 7.4 SE 17 26 9 14 1018.4 1015.8 0.0
22/05:00pm 26.4 25.4 14.6 48 7.2 ESE 13 22 7 12 1018.2 1015.6 0.0
22/04:30pm 25.9 24.8 15.2 51 6.6 SE 15 22 8 12 1018.1 1015.5 0.0
22/04:00pm 27.2 25.7 15.2 47 7.4 SE 17 28 9 15 1018.1 1015.5 0.0
22/03:30pm 27.3 25.2 15.2 47 7.5 SE 20 33 11 18 1018.1 1015.5 0.0
22/03:00pm 26.9 25.5 15.6 50 7.0 SE 17 24 9 13 1018.2 1015.6 0.0
22/02:30pm 26.9 25.7 15.0 48 7.3 SE 15 33 8 18 1018.3 1015.7 0.0
22/02:00pm 27.7 26.8 14.9 45 7.9 SE 13 24 7 13 1018.7 1016.1 0.0
22/01:30pm 27.4 26.7 14.3 44 8.0 SE 11 22 6 12 1019.1 1016.6 0.0
22/01:00pm 26.9 25.5 13.4 43 8.1 ENE 13 19 7 10 1019.6 1017.0 0.0
22/12:30pm 26.5 25.0 14.1 46 7.5 ESE 15 24 8 13 1019.9 1017.3 0.0
22/12:00pm 26.3 25.1 15.1 50 6.9 ESE 15 24 8 13 1020.2 1017.6 0.0
22/11:30am 25.7 23.8 15.1 52 6.5 SE 19 32 10 17 1020.8 1018.2 0.0
22/11:00am 25.5 24.1 15.6 54 6.1 SE 17 26 9 14 1021.1 1018.6 0.0
22/10:30am 23.2 22.2 15.5 62 4.7 SE 15 24 8 13 1021.4 1018.9 0.0
22/10:00am 23.3 22.2 15.4 61 4.8 SE 15 26 8 14 1021.7 1019.1 0.0
22/09:30am 23.4 22.0 15.6 61 4.8 SE 17 24 9 13 1021.4 1018.9 0.0
22/09:00am 22.5 21.9 15.6 65 4.2 SE 13 24 7 13 1021.5 1019.0 0.0
22/08:30am 21.8 21.3 16.8 73 3.1 SE 15 24 8 13 1021.4 1018.9 0.0
22/08:00am 20.8 20.6 16.8 78 2.5 SE 13 22 7 12 1021.3 1018.8 0.0
22/07:30am 20.2 20.0 16.8 81 2.1 SSE 13 22 7 12 1021.2 1018.7 0.0
22/07:00am 19.4 19.2 16.8 85 1.6 SE 13 19 7 10 1021.0 1018.5 0.0
22/06:30am 19.0 19.1 16.5 85 1.5 SE 11 19 6 10 1020.8 1018.2 0.0
22/06:00am 18.6 18.4 16.6 88 1.2 SE 13 20 7 11 1020.2 1017.6 0.0
22/05:30am 18.6 17.9 16.5 87 1.3 SSE 15 28 8 15 1019.9 1017.3 0.0
22/05:00am 18.5 18.6 16.5 88 1.2 SE 11 19 6 10 1019.7 1017.1 0.0
22/04:30am 18.0 19.0 16.4 90 1.0 SE 6 13 3 7 1019.5 1016.9 0.0
22/04:00am 17.3 18.5 16.0 92 0.8 ENE 4 7 2 4 1019.6 1017.0 0.0
22/03:30am 18.0 18.6 15.7 86 1.4 SE 7 13 4 7 1019.5 1016.9 0.0
22/03:00am 17.7 18.4 15.7 88 1.2 ESE 6 9 3 5 1019.1 1016.6 0.0
22/02:30am 18.2 19.0 15.9 86 1.4 SE 6 11 3 6 1019.3 1016.8 0.0
22/02:00am 18.5 19.2 16.0 85 1.5 SE 7 11 4 6 1019.3 1016.8 0.0
22/01:30am 18.6 19.4 16.3 86 1.4 SE 7 13 4 7 1019.6 1017.0 0.0
22/01:00am 18.8 19.4 15.8 83 1.8 SE 7 13 4 7 1019.8 1017.2 0.0
22/12:30am 19.1 20.7 16.0 82 1.9 SE 2 7 1 4 1019.7 1017.1 0.0
22/12:00am 19.6 20.3 16.2 81 2.1 SE 7 13 4 7 1020.0 1017.4 0.0
 
Date/Time
EST
Temp
°C
App
Temp
°C
Dew
Point
°C
Rel
Hum
%
Delta-T
°C
Wind Press
QNH
hPa
Press
MSL
hPa
Rain since
9am
mm
Dir  Spd
km/h
Gust
km/h
Spd
kts
Gust
kts
21/11:30pm 20.2 20.3 16.5 79 2.3 SE 11 17 6 9 1020.1 1017.5 0.0
21/11:00pm 20.4 20.2 16.8 80 2.2 SE 13 19 7 10 1019.9 1017.3 0.0
21/10:30pm 20.8 21.4 16.9 78 2.4 SE 9 17 5 9 1020.2 1017.6 0.0
21/10:00pm 21.0 20.8 16.8 77 2.6 SE 13 22 7 12 1020.2 1017.6 0.0
21/09:30pm 21.5 21.0 17.0 75 2.8 SE 15 24 8 13 1020.3 1017.7 0.0
21/09:00pm 21.7 20.6 17.2 75 2.8 SE 19 26 10 14 1019.9 1017.3 0.0
21/08:30pm 21.9 21.3 17.6 76 2.7 SE 17 28 9 15 1019.9 1017.3 0.0
21/08:00pm 22.6 22.9 17.9 75 3.0 SE 13 22 7 12 1019.7 1017.1 0.0
21/07:30pm 23.1 23.4 17.9 72 3.3 SE 13 26 7 14 1019.0 1016.5 0.0
21/07:00pm 23.8 23.9 17.5 68 4.0 SE 13 22 7 12 1018.7 1016.1 0.0
21/06:30pm 24.5 24.7 17.6 65 4.4 SE 13 20 7 11 1018.1 1015.5 0.0
21/06:00pm 25.6 25.8 17.6 61 5.1 SE 13 19 7 10 1017.6 1015.0 0.0
21/05:30pm 26.6 26.1 16.8 55 6.2 SE 15 24 8 13 1017.1 1014.6 0.0
21/05:00pm 27.6 27.7 15.4 47 7.6 SE 9 17 5 9 1016.7 1014.1 0.0
21/04:30pm 28.2 27.8 15.1 44 8.1 E 11 20 6 11 1016.6 1014.0 0.0
21/04:00pm 28.2 27.8 15.3 45 8.0 E 11 20 6 11 1016.6 1014.0 0.0
21/03:30pm 29.2 28.1 15.4 43 8.6 E 15 20 8 11 1016.5 1013.9 0.0
21/03:00pm 28.8 28.1 15.3 43 8.4 ESE 13 22 7 12 1016.7 1014.1 0.0
21/02:30pm 29.4 28.8 15.7 43 8.6 SE 13 22 7 12 1016.7 1014.1 0.0
21/02:00pm 29.1 28.8 15.5 43 8.5 SE 11 19 6 10 1016.8 1014.2 0.0
21/01:30pm 28.7 28.9 14.8 42 8.6 SE 7 15 4 8 1017.0 1014.4 0.0
21/01:00pm 28.6 28.2 15.1 43 8.4 SSE 11 22 6 12 1017.3 1014.7 0.0
21/12:30pm 28.2 27.4 11.0 34 10.0 NNE 6 13 3 7 1017.7 1015.1 0.0
21/12:00pm 27.9 27.7 14.7 44 8.1 ENE 9 19 5 10 1018.0 1015.4 0.0
21/11:30am 26.9 27.1 14.6 46 7.5 ESE 7 17 4 9 1018.2 1015.6 0.0
21/11:00am 26.5 27.0 15.5 50 6.8 ENE 7 15 4 8 1018.6 1016.0 0.0
21/10:30am 26.5 28.1 15.9 52 6.6 NNW 2 11 1 6 1019.0 1016.5 0.0
21/10:00am 25.2 25.8 15.8 56 5.8 S 7 13 4 7 1019.1 1016.6 0.0
21/09:30am 24.6 25.8 16.8 62 4.9 SSE 6 13 3 7 1019.5 1016.9 0.0
21/09:00am 23.2 24.2 16.8 67 4.0 SSE 7 13 4 7 1019.5 1016.9 0.0
21/08:30am 23.1 24.4 17.2 69 3.7 SSE 6 11 3 6 1019.3 1016.8 0.0
21/08:00am 20.9 23.1 17.4 80 2.2 SE 2 9 1 5 1019.0 1016.5 0.0
21/07:30am 19.0 21.2 16.6 86 1.5 CALM 0 6 0 3 1019.0 1016.5 0.0
21/07:00am 18.0 20.1 16.2 89 1.1 CALM 0 0 0 0 1018.8 1016.2 0.0
21/06:30am 17.3 18.5 16.0 92 0.8 ENE 4 7 2 4 1018.3 1015.7 0.0
21/06:00am 16.9 17.5 15.7 93 0.7 NE 7 9 4 5 1017.8 1015.2 0.0
21/05:30am 16.5 17.0 15.5 94 0.6 NNE 7 9 4 5 1017.6 1015.0 0.0
21/05:00am 16.0 16.6 15.3 96 0.4 NNE 6 11 3 6 1017.1 1014.6 0.0
21/04:30am 16.2 16.9 15.5 96 0.4 NNE 6 7 3 4 1016.6 1014.0 0.0
21/04:00am 16.2 18.1 15.7 97 0.3 CALM 0 0 0 0 1016.4 1013.8 0.0
21/03:30am 16.8 18.3 15.8 94 0.6 NE 2 6 1 3 1016.2 1013.6 0.0
21/03:00am 16.5 18.2 15.3 93 0.7 CALM 0 0 0 0 1016.1 1013.5 0.0
21/02:30am 16.9 18.7 15.6 92 0.8 CALM 0 0 0 0 1015.9 1013.3 0.0
21/02:00am 17.2 19.2 16.0 93 0.7 CALM 0 0 0 0 1016.0 1013.4 0.0
21/01:30am 17.6 18.5 16.5 93 0.7 NE 7 9 4 5 1016.0 1013.4 0.0
21/01:00am 18.3 20.1 16.5 89 1.1 NE 2 11 1 6 1016.4 1013.8 0.0
21/12:30am 18.4 20.5 16.3 87 1.3 CALM 0 7 0 4 1016.6 1014.0 0.0
21/12:00am 18.8 20.8 16.0 84 1.7 CALM 0 0 0 0 1016.7 1014.1 0.0
 
Date/Time
EST
Temp
°C
App
Temp
°C
Dew
Point
°C
Rel
Hum
%
Delta-T
°C
Wind Press
QNH
hPa
Press
MSL
hPa
Rain since
9am
mm
Dir  Spd
km/h
Gust
km/h
Spd
kts
Gust
kts
20/11:30pm 18.1 19.6 14.7 80 2.0 CALM 0 0 0 0 1016.7 1014.1 0.0
20/11:00pm 17.9 19.2 14.1 78 2.2 CALM 0 0 0 0 1016.6 1014.0 0.0
20/10:30pm 19.2 20.0 13.7 70 3.2 NNE 2 9 1 5 1016.4 1013.8 0.0
20/10:00pm 18.6 19.4 13.8 73 2.8 ESE 2 6 1 3 1016.4 1013.8 0.0
20/09:30pm 17.9 17.9 15.2 84 1.6 ENE 9 11 5 6 1016.0 1013.4 0.0
20/09:00pm 19.8 19.7 13.8 68 3.5 ENE 7 9 4 5 1015.6 1013.0 0.0
20/08:30pm 23.1 21.3 9.3 41 7.6 WNW 9 11 5 6 1015.2 1012.5 0.0
20/08:00pm 23.4 21.5 9.0 40 7.9 WNW 9 11 5 6 1014.5 1011.9 0.0
20/07:30pm 23.9 21.4 6.7 33 9.1 NW 9 15 5 8 1014.1 1011.5 0.0
20/07:00pm 23.5 21.2 7.4 35 8.6 NW 9 11 5 6 1013.6 1011.0 0.0
20/06:30pm 23.7 22.2 9.2 39 8.0 NW 7 9 4 5 1013.2 1010.5 0.0
20/06:00pm 26.1 24.3 7.0 29 10.3 NW 6 9 3 5 1012.6 1010.0 0.0
20/05:30pm 27.8 25.9 7.6 28 11.1 W 7 11 4 6 1012.2 1009.6 0.0

Latest Capital City Observations: Canberra | Sydney | Melbourne | Brisbane | Adelaide | Perth | Hobart | Darwin

Other Formats:

Comma delimited format used in spreadsheet applications
http://www.bom.gov.au/fwo/IDQ60901/IDQ60901.94555.axf

JavaScript Object Notation format (JSON) in row-major order
http://www.bom.gov.au/fwo/IDQ60901/IDQ60901.94555.json